Regional Weather Roundup
Issued by NWS Charleston, SC

Current Version | Previous Version | Text Only | Print | Product List | Glossary Off
Versions: 1 2 3 4 5 6 7 8 9 10 11 12 13 14 15 16 17 18 19 20 21 22 23 24 25 26 27 28 29 30 31 32 33 34 35 36 37 38 39 40 41 42 43 44 45 46 47 48 49 50

000
ASUS42 KCHS 302328
RWRCHS

REGIONAL WEATHER ROUNDUP
NATIONAL WEATHER SERVICE CHARLESTON SC
700 PM EDT SAT APR 30 2016

NOTE: "FAIR" INDICATES FEW OR NO CLOUDS BELOW 12,000 FEET WITH NO
SIGNIFICANT WEATHER AND/OR OBSTRUCTIONS TO VISIBILITY.

NOT ALL STATIONS ARE QUALITY CONTROLLED. USE DATA WITH CAUTION...
ESPECIALLY DEWPOINT OBSERVATIONS.

SCZ027-030-031-034>040-042>050-010000-
...SOUTHEAST SOUTH CAROLINA...

CITY           SKY/WX    TMP DP  RH WIND       PRES   REMARKS
N CHARLESTON   CLOUDY    78  68  71 SE10      30.03R
WATERFRONT PRK   N/A     75  71  87 E12       30.01R
MOUNT PLEASANT MOCLDY    75  72  88 CALM      30.04S
JOHNS ISLAND   FAIR      75  72  88 E10       30.04R
PINOPOLIS        N/A     82  68  61 VRB3      29.94R
MONCKS CORNER  FAIR      75  64  69 SE7       30.04R
SUMMERVILLE    FAIR      79  68  69 SE3       30.04R
BEAUFORT MCAS  MOSUNNY   79  68  69 SE8G16    30.01R
BEAUFORT ARPT  FAIR      77  66  69 SE3       30.01S
HILTON HEAD IS SUNNY     77  70  78 SE5       30.02R
WALTERBORO     CLOUDY    79  64  61 SE9       30.02S
ALLENDALE      FAIR      81  57  44 SE9G16    29.98S

...SOUTHERN MIDLANDS AND PEE DEE...

CITY           SKY/WX    TMP DP  RH WIND       PRES   REMARKS
GEORGETOWN     CLOUDY    68  63  83 E9        30.08S
KINGSTREE      FAIR      73  63  68 E13G20    30.04R
ORANGEBURG     MOSUNNY   81  63  54 S9        30.00R
BARNWELL       FAIR      82  61  47 SE12      29.98F
AIKEN          FAIR      81  59  47 SE13      30.00S
MANNING        NOT AVBL
COLUMBIA       PTSUNNY   85  59  41 S16       29.97R
SUMTER         CLOUDY    81  65  58 SE12G17   29.98R
FLORENCE       MOSUNNY   76  65  68 SE12      30.05R
MYRTLE BEACH   PTSUNNY   70  57  64 E17G24    30.10R
N MYRTLE BEACH PTSUNNY   70  61  73 E10       30.08S

$$

GAZ063-065-086>088-099>101-113>116-118-119-134>141-150-010000-
...SOUTHEAST GEORGIA...

CITY           SKY/WX    TMP DP  RH WIND       PRES   REMARKS
SAVANNAH ARPT  PTSUNNY   80  68  66 SE12      29.99R
HUNTER AAF     MOSUNNY   78  72  80 E13       29.97R
FORT STEWART   CLOUDY    79  70  73 E9        29.95F
STATESBORO     MOSUNNY   83  69  62 SE8G16    29.98R
SYLVANIA       CLOUDY    81  67  62 SE7       29.99S
CLAXTON        FAIR      81  70  69 E9        29.98R

...CSRA...CENTRAL AND FAR SOUTHEAST GEORGIA...

CITY           SKY/WX    TMP DP  RH WIND       PRES   REMARKS
THOMSON        CLOUDY    85  63  47 SE8       29.99R
AUGUSTA-BUSH   MOSUNNY   82  62  50 SE10      29.94S
AUGUSTA-DANIEL CLOUDY    84  61  45 SE8       29.96S
SWAINSBORO     FAIR      84  55  37 SE10      29.96R
VIDALIA        MOSUNNY   82  63  51 SE10G16   29.96R
EASTMAN        FAIR      72  72 100 CALM      29.96S
HAZLEHURST     FAIR      84  63  48 SE6       29.94R
ALMA           CLOUDY    82  65  56 E12G20    29.94R
WAYCROSS       PTSUNNY   80  66  62 SE10      29.96R
JESUP          FAIR      81  72  74 SE6       29.98R
BAXLEY         FAIR      82  64  54 SE8       29.95R
BRUNSWICK      CLOUDY    82  72  69 SE7       29.99R
SAINT SIMONS   CLOUDY    77  73  87 E9        29.97S

$$

SCZ027-028-034-036>038-045-046-048>050-GAZ119-141-010000-
...LAKE AND SUPPLEMENTAL COASTAL OBSERVATIONS...

STATION/POSITION TIME  TEMP    WIND        PRES    WAVE   SWELL
                       AIR SEA DIR/SP/G            HT/PER HT/PER/DIR
                 (UTC) (F)     (DEG/KT/KT) (MB)    (FT/S) (FT/S/D)
WINYAH BAY       2245   69      70/ 15     1017.0S
LAKE MURRAY      2200   82     160/ 11/ 17 1014.2R
ACE BASIN NERRS  2245   78     130/  3     1016.0S
FORT PULASKI     2300   76 73                N/A
SAPELO ISLAND    2300   78     100/  5     1015.0S

$$

ANZ835-935-AMZ111-154-330-350-352-354-370-450-454-472-010000-
...C-MAN AND BUOY OBSERVATIONS...

STATION/POSITION TIME  TEMP    WIND        PRES    WAVE   SWELL
                       AIR SEA DIR/SP/G            HT/PER HT/PER/DIR
                 (UTC) (F)     (DEG/KT/KT) (MB)    (FT/S) (FT/S/D)
BUOY 41004       2250   75 74   90/ 12/ 14 1016.4R   3/ 4   2/10
BUOY 41008       NOT AVBL
FOLLY BEACH CMAN 2300   74      90/ 11/ 13 1017.2R
CAPERS NEARSHORE 2208   74 72  100/  8/ 10 1016.8R
FRIPP NEARSHORE  2208   75 75  100/  8/  8 1015.5R


STATION/POSITION TIME  TEMP    WIND        PRES    WAVE   SWELL
                       AIR SEA DIR/SP/G            HT/PER HT/PER/DIR
                 (UTC) (F)     (DEG/KT/KT) (MB)    (FT/S) (FT/S/D)
5E ST. MARYS GA  2221      74                N/A     2/10
FRYING PAN BUOY  2300   69 70   50/ 17/ 21 1018.5R
BUOY 41025       2250   59 73   40/ 16/ 21 1020.4R   5/10   3/ 40/10
CAPE LOOKOUT NC  2300   62      50/ 16/ 17 1020.4R
BUOY 41002       2250   71      60/ 12/ 14 1018.6R   5/10   3/ 40/10
BUOY 41010       2220   77 78  140/  2/  4 1016.4R
ST AUGUSTINE FL  2300   74 75  140/ 11/ 12 1015.4R


$$




USA.gov is the U.S. government's official web portal to all federal, state and local government web resources and services.